Temperature
21 21 20 20 20 19 21 22 23 22 22 22 22 22 21 20 20 20 20 20 20 20 19 19 19 19 19 19 19 19 19 19 19 19 19 19 19 19 19 19 19 19 18 18 18 18 18 18 18
22 21 21 20 20 20 21 22 22 22 23 23 22 22 21 20 20 20 20 20 20 20 20 19 19 19 19 19 19 19 19 19 19 19 19 19 19 19 19 19 18 18 18 18 18 18 18 18 18
22 21 21 19 20 20 22 22 22 23 23 23 22 21 21 20 20 20 20 20 20 20 19 19 19 19 19 19 19 19 19 19 19 19 19 19 19 18 18 18 18 18 18 18 18 18 18 18 18
22 21 21 20 21 22 22 22 23 23 23 23 22 21 20 20 20 20 20 20 20 20 19 19 19 19 19 19 19 19 19 19 19 19 19 19 19 18 18 18 18 18 18 18 18 18 18 18 18
22 22 20 20 22 22 23 23 23 22 22 22 21 20 20 20 20 20 20 20 20 20 19 19 19 19 19 19 19 19 19 19 19 19 19 19 19 18 18 18 18 18 18 18 18 18 18 18 18
23 21 20 21 22 23 23 23 23 22 22 22 21 20 20 20 20 20 20 20 20 19 19 19 19 19 19 19 19 19 19 19 19 19 19 18 18 18 18 18 18 18 18 18 18 18 18 18 18
22 20 21 21 22 23 23 23 23 22 22 22 21 20 20 20 20 20 20 20 19 19 19 19 19 19 19 19 19 18 18 19 19 19 19 18 18 18 18 18 18 18 18 18 18 18 18 18 18
23 20 21 21 22 23 23 23 23 23 22 22 22 20 20 20 20 20 20 19 19 19 19 19 19 19 19 18 18 18 18 18 18 18 18 18 18 18 18 18 18 18 18 18 18 18 18 18 18
24 20 21 22 22 23 23 23 23 23 22 22 21 21 20 20 20 20 19 19 19 19 19 19 19 19 19 18 18 18 18 18 18 18 18 18 18 18 18 18 18 18 18 18 18 17 17 17 18
23 21 22 23 23 23 23 23 23 23 22 21 21 20 20 20 20 20 19 19 19 19 19 19 19 19 18 18 18 18 18 18 18 18 18 18 18 18 18 18 18 18 18 18 18 17 17 18 18
23 22 23 24 24 24 23 23 23 22 21 21 21 20 20 20 20 20 20 19 19 19 19 19 18 18 18 18 18 18 18 18 18 18 18 18 18 18 18 18 18 18 18 18 17 17 17 17 18
23 23 24 24 25 24 23 23 23 22 22 22 22 21 20 20 20 20 19 19 19 19 19 19 19 18 18 18 18 18 18 18 18 18 18 18 18 18 18 18 18 18 18 18 17 17 17 17 17
24 24 24 25 24 24 24 23 23 22 22 22 21 21 20 20 20 19 19 19 19 19 19 19 19 18 18 18 18 18 18 18 18 18 18 18 18 18 18 18 18 18 18 17 17 17 17 17 17
24 24 24 24 24 24 23 22 22 22 22 21 20 20 20 20 20 19 19 19 19 19 19 19 19 18 18 18 18 18 18 18 18 18 18 18 18 18 18 18 18 18 17 17 17 17 17 17 17
25 23 23 23 24 23 23 22 22 21 21 21 20 20 20 20 20 20 20 19 19 19 19 19 19 19 18 18 18 18 18 18 18 18 18 18 18 18 18 18 18 18 17 17 17 17 17 17 17
24 23 23 23 23 23 23 22 21 21 21 20 20 19 19 20 20 20 19 19 19 19 19 19 19 19 18 18 18 18 18 18 18 18 18 18 18 18 18 18 18 17 17 17 17 17 17 17 17
22 22 23 23 23 23 22 21 21 21 20 20 19 19 19 19 19 19 19 19 19 19 19 19 19 19 18 18 18 18 18 18 18 18 18 18 18 18 18 18 18 17 17 17 17 17 17 17 17
23 23 23 23 23 22 21 21 21 21 20 20 19 19 19 19 19 19 19 19 19 19 19 19 18 18 18 18 18 18 18 18 18 18 18 18 18 18 18 17 17 17 17 17 17 17 17 17 17
24 23 23 23 23 22 21 21 21 20 20 19 19 19 19 19 19 19 19 19 19 19 19 18 18 18 18 18 18 18 18 18 18 17 17 17 17 17 17 17 17 17 17 17 17 17 17 17 17
24 23 23 23 23 22 21 21 21 20 20 20 19 19 19 19 19 19 19 19 19 19 19 19 18 18 18 18 18 18 18 17 17 17 17 17 17 17 17 17 17 17 17 17 17 17 17 17 17
24 23 23 23 23 22 22 21 21 21 20 20 20 20 20 19 19 19 19 19 19 19 19 18 18 18 18 18 18 17 17 17 17 17 17 17 17 17 17 17 17 17 17 17 17 17 17 17 17
24 24 24 23 21 20 22 20 21 20 19 20 20 19 20 20 20 20 19 19 19 19 19 18 18 18 18 18 18 17 17 17 17 17 17 17 17 17 17 17 17 17 17 17 17 17 17 17 17
24 24 23 22 21 20 20 20 20 19 19 19 19 20 20 20 20 20 20 19 19 19 18 18 18 18 18 18 18 17 17 17 17 17 17 17 17 17 17 17 17 17 17 17 17 17 16 16 16
24 23 21 19 19 20 21 20 20 19 19 20 20 20 20 20 20 20 20 19 19 19 18 18 18 18 18 18 18 17 17 17 17 17 17 17 17 17 17 17 17 17 17 16 16 16 16 16 16
23 21 21 21 20 20 20 20 19 20 20 20 20 20 20 20 20 20 20 19 19 19 19 18 18 18 18 18 18 17 17 17 17 17 17 17 17 17 17 17 17 17 16 16 16 16 16 16 16
23 22 21 22 21 20 19 19 20 21 21 21 21 20 20 20 20 20 20 19 19 19 18 18 18 18 18 18 18 17 17 17 17 17 17 17 16 16 16 16 16 16 16 16 16 16 16 16 16
23 21 20 19 19 19 19 19 20 20 20 20 20 20 20 20 20 20 20 19 19 19 18 18 18 18 18 18 17 17 17 17 16 16 16 16 16 16 16 16 16 16 16 16 16 16 16 16 16
22 19 18 19 20 20 20 20 20 20 20 19 19 19 20 20 20 20 20 19 19 19 18 18 18 18 17 17 17 17 17 16 16 16 16 16 16 16 16 16 16 16 16 16 15 15 15 15 15
22 20 18 17 18 19 20 20 21 20 19 19 19 19 20 20 20 20 20 19 19 19 18 18 18 18 17 17 17 17 16 16 16 16 16 16 16 16 16 16 16 16 16 15 15 15 15 15 15
22 21 18 20 19 17 18 20 21 20 19 19 19 20 20 20 20 20 20 19 19 19 18 18 18 18 17 17 17 16 16 16 16 16 15 15 15 15 15 15 15 15 15 15 15 15 15 15 15
Wind_Speed
6 5 3 1 3 5 3 4 2 3 3 3 5 6 6 4 2 2 0 3 4 4 6 9 10 10 11 11 11 11 11 11 12 12 12 12 14 14 14 14 13 12 12 11 11 11 11 10 10
5 4 1 2 4 4 4 4 3 3 2 2 4 5 5 4 3 4 2 2 5 6 7 8 10 10 10 10 10 10 10 11 11 11 11 11 12 13 13 13 13 12 11 11 10 10 10 9 9
5 3 2 3 4 2 1 2 3 4 4 3 4 5 4 3 2 2 2 5 6 5 6 8 10 10 10 10 9 9 9 9 10 10 11 11 11 11 12 12 11 11 11 10 10 9 9 9 8
2 1 3 5 4 0 1 1 1 2 5 6 5 5 4 4 1 3 5 7 7 4 6 8 10 10 9 9 9 9 9 8 8 9 10 10 10 10 10 11 10 10 10 9 9 9 9 8 8
2 3 5 4 3 2 1 1 3 3 3 5 5 4 4 5 6 7 7 7 6 4 5 7 9 9 9 8 8 7 7 7 7 7 8 9 9 9 9 9 9 9 8 8 8 8 8 8 8
3 4 5 2 3 3 2 3 4 5 4 4 4 3 3 3 5 6 6 5 5 4 4 5 7 8 7 7 7 7 7 6 6 6 7 8 9 9 8 8 8 8 7 7 7 7 7 7 7
4 4 3 1 1 2 1 2 3 3 4 3 3 3 1 2 4 5 6 5 4 4 4 3 4 5 6 6 6 6 5 5 4 5 6 7 8 7 7 7 7 7 7 6 6 6 6 6 6
3 4 3 1 1 1 0 2 1 3 3 3 3 4 3 3 5 7 7 6 5 4 4 3 4 3 2 3 4 4 4 4 4 4 5 6 6 6 6 6 6 6 6 6 5 5 5 6 6
3 4 1 2 3 2 1 2 1 3 4 3 3 3 4 8 8 8 6 4 3 3 2 2 3 3 2 2 2 2 3 2 2 2 2 3 3 3 4 5 6 6 6 5 5 5 5 5 6
4 3 3 2 4 3 2 1 2 3 4 3 5 7 8 8 8 7 6 5 3 2 1 2 2 2 1 1 1 1 1 1 0 0 1 1 1 2 3 5 6 5 5 4 4 4 5 4 3
3 3 1 0 2 3 3 1 1 5 1 3 6 9 9 8 6 6 5 4 3 2 1 1 1 1 1 0 1 1 1 1 1 1 1 1 1 1 2 2 3 3 3 2 3 3 2 2 2
2 0 1 1 2 3 3 2 3 2 2 4 9 12 10 9 7 6 5 3 3 2 1 1 1 1 0 0 0 0 0 0 1 2 1 1 0 1 1 1 1 1 1 2 2 1 2 2 3
1 0 2 3 4 4 4 3 3 2 4 9 11 10 9 8 5 3 3 3 2 2 0 0 0 0 0 0 1 0 1 1 1 1 1 2 1 1 0 1 1 1 1 1 1 2 1 2 2
1 3 3 3 4 3 5 3 3 2 7 9 9 8 6 6 5 4 3 2 2 1 1 1 1 1 1 1 1 1 1 2 1 2 2 2 2 2 1 1 1 1 1 2 2 2 2 2 2
3 5 5 2 2 2 4 4 2 3 7 8 7 6 5 4 4 4 4 3 3 2 1 1 1 1 0 0 1 1 1 1 1 2 2 1 2 2 1 1 2 2 2 1 1 1 1 2 2
4 5 2 3 2 2 4 0 1 4 7 7 6 5 4 3 3 3 3 2 1 1 0 1 0 1 1 0 0 0 0 0 1 1 1 1 1 2 2 1 2 2 1 0 1 1 1 1 2
4 2 1 2 0 3 3 1 1 4 6 5 5 4 4 2 1 1 2 2 1 1 1 0 1 1 0 1 1 0 1 0 1 1 1 1 1 1 1 1 1 0 0 0 1 0 0 1 1
2 2 2 3 2 4 3 1 2 3 5 5 4 4 4 3 4 3 2 1 1 1 1 1 0 0 1 1 1 2 2 1 1 1 1 1 1 0 1 1 0 0 1 0 1 0 1 0 1
3 3 2 3 2 3 3 2 2 4 5 5 5 4 4 4 3 1 1 1 1 0 1 1 1 1 1 1 1 1 1 1 1 1 1 1 1 0 1 0 0 1 0 0 1 1 0 1 1
2 1 1 1 2 3 2 1 2 4 5 6 6 6 5 3 2 2 1 1 1 1 1 1 0 1 1 0 1 1 1 1 0 1 1 1 1 1 1 0 0 0 1 1 1 1 1 0 1
1 4 4 3 3 4 3 3 2 2 2 3 4 4 5 6 6 4 3 2 2 2 2 1 0 0 1 1 1 1 2 2 2 2 2 1 1 1 1 1 1 1 1 0 0 0 1 0 0
3 4 5 5 4 1 1 2 5 2 2 4 5 5 6 6 6 5 4 3 3 3 2 1 0 0 1 1 1 1 1 0 1 1 1 2 2 2 1 1 1 1 1 0 0 0 0 1 0
3 2 5 5 4 2 2 1 6 1 4 6 6 7 7 7 6 6 6 5 4 2 2 1 1 1 1 2 1 1 0 0 0 1 2 2 2 2 2 1 1 1 1 1 0 0 1 1 1
4 7 7 6 5 1 2 2 6 4 6 5 5 6 6 6 5 5 4 3 2 1 1 1 1 0 1 1 2 1 1 1 1 1 1 1 2 2 3 2 1 1 1 0 0 0 1 1 1
6 6 4 4 4 5 2 2 7 6 5 6 6 6 5 5 5 5 4 3 2 1 1 1 1 0 0 1 1 0 1 2 1 1 0 0 1 1 2 2 1 1 1 1 0 1 0 1 1
3 7 6 4 4 4 2 4 7 5 3 3 3 3 3 4 5 5 5 4 3 2 1 1 1 1 0 1 1 0 1 1 1 0 0 0 1 1 1 2 2 2 2 1 1 1 0 0 0
5 3 5 6 2 1 5 6 6 1 1 1 2 3 3 4 5 5 4 4 3 3 2 2 2 1 0 1 1 1 1 1 1 1 1 1 1 1 2 2 2 2 2 2 1 2 1 0 0
5 8 6 5 4 2 5 5 5 4 3 2 3 3 2 3 4 4 4 4 4 3 2 2 2 1 1 1 1 1 1 1 1 2 2 2 2 2 3 3 3 3 2 2 2 2 1 1 1
4 4 6 5 5 5 3 7 5 7 6 6 5 5 5 4 5 4 3 3 3 3 2 2 1 1 2 1 1 2 1 1 2 2 1 2 2 2 2 2 3 3 3 3 2 2 2 2 1
4 6 7 4 3 4 4 7 5 5 6 6 5 5 4 4 3 3 3 3 3 3 2 2 2 1 1 2 2 1 1 2 2 2 2 2 2 2 2 2 2 2 3 3 3 3 3 2 2
Wind_Direction
163 154 149 128 54 48 14 337 355 15 25 26 58 75 86 74 78 116 352 116 115 123 135 138 135 134 130 128 126 126 128 127 128 129 130 132 139 142 143 145 144 144 144 145 144 146 145 145 145
156 161 151 61 68 49 345 339 34 31 94 114 65 64 67 60 64 97 102 124 121 126 131 136 135 134 132 128 124 125 128 130 130 131 132 133 136 141 145 148 149 149 149 151 148 149 150 150 152
168 177 81 65 73 111 330 350 64 55 40 42 56 54 63 66 83 120 156 135 117 120 130 137 136 135 131 128 127 126 128 130 131 134 135 137 140 144 147 150 151 152 155 156 156 156 155 155 156
151 77 54 64 62 297 216 295 78 63 33 37 64 58 50 41 75 126 124 121 117 114 131 141 138 137 134 131 130 129 129 130 130 136 140 141 144 146 145 151 153 158 161 160 163 162 160 162 161
78 75 53 43 22 351 19 26 28 39 34 42 64 71 35 13 72 106 116 115 118 114 127 142 140 139 137 135 134 134 131 131 134 141 149 151 150 148 149 153 160 166 167 166 167 167 168 170 167
53 61 67 40 6 3 29 48 51 57 59 53 64 69 27 35 88 112 112 107 109 110 114 128 135 137 136 137 139 137 132 128 136 148 158 161 158 159 159 163 166 171 175 176 178 181 182 181 175
84 73 88 87 29 5 52 45 51 70 64 56 84 80 48 64 104 107 97 90 84 88 89 94 115 132 139 141 144 140 135 136 146 156 161 166 168 169 170 171 173 176 183 190 193 192 189 188 184
118 93 67 63 121 297 85 74 80 76 74 88 87 118 164 162 121 101 89 83 81 76 67 62 70 78 109 144 145 145 144 142 146 153 166 174 178 178 179 179 182 190 195 201 205 203 203 198 193
103 71 91 202 174 205 156 94 73 71 90 67 69 107 134 130 121 110 99 86 86 86 60 60 60 62 68 111 150 148 139 138 154 158 187 191 184 190 194 199 205 206 207 207 209 215 220 215 210
91 108 230 210 181 168 138 117 138 98 80 66 67 81 112 120 127 130 131 133 135 130 106 78 65 68 70 114 85 80 90 82 313 254 267 273 211 216 214 217 221 222 219 219 221 227 229 228 220
125 169 222 99 151 140 131 101 87 124 130 176 147 135 134 130 132 139 146 145 156 154 125 82 79 98 124 30 59 42 30 14 316 297 280 283 303 279 259 253 241 238 245 265 253 248 246 227 222
135 243 134 81 100 117 133 116 86 131 190 151 144 142 142 145 152 155 149 147 141 128 114 50 65 58 330 330 277 201 259 287 298 284 258 210 239 318 323 313 290 275 269 276 283 271 264 249 239
123 53 55 86 78 82 85 75 94 60 95 117 126 134 144 150 153 143 121 111 109 119 123 239 173 180 233 197 238 225 246 232 258 280 267 206 184 197 218 300 288 270 255 263 288 283 284 273 258
129 84 67 83 97 85 85 48 75 78 116 120 128 137 149 152 148 131 124 128 135 158 223 253 211 232 205 216 228 243 244 243 246 263 258 218 200 193 189 235 264 262 247 238 248 257 254 262 254
83 72 40 39 72 90 89 37 57 131 128 128 134 142 149 159 154 157 164 167 171 180 195 216 198 70 66 271 253 241 247 236 238 260 271 237 205 199 198 221 251 265 251 242 240 269 255 245 233
52 61 34 303 72 86 91 293 35 137 137 142 148 151 155 168 179 175 165 165 163 146 147 285 291 59 28 333 295 268 278 215 256 267 276 255 224 201 195 215 249 264 243 240 238 264 248 243 227
38 63 259 295 126 106 103 220 187 149 147 153 160 164 170 177 200 194 183 182 186 186 188 222 1 62 7 340 357 358 15 354 288 301 310 292 253 217 189 220 253 233 124 72 275 317 219 216 218
228 209 235 242 204 116 126 206 190 167 160 169 174 174 182 198 224 213 194 194 189 189 176 175 110 33 20 27 15 15 11 352 352 321 313 310 285 190 170 202 316 77 98 45 28 5 12 167 193
174 179 226 252 178 131 163 206 213 184 173 185 190 193 197 211 224 207 197 160 93 92 135 131 83 12 39 32 355 341 318 327 354 332 328 325 330 133 147 230 20 57 80 115 67 66 40 54 94
155 152 223 33 109 115 140 256 236 189 195 199 199 202 203 207 211 204 186 146 139 153 137 101 59 19 25 336 283 246 244 286 329 353 5 6 24 53 158 127 108 98 76 50 58 78 80 81 94
236 189 201 175 74 65 77 344 282 240 192 198 202 200 199 201 209 208 200 196 179 187 198 207 218 47 12 16 35 29 36 27 24 14 7 2 47 60 59 46 66 74 107 202 201 107 136 141 46
259 238 171 144 109 339 74 289 283 252 238 223 222 213 210 209 205 198 200 201 199 207 195 188 290 40 43 73 75 95 106 352 318 350 359 2 30 46 49 43 49 63 71 130 248 124 124 132 175
214 52 100 115 115 59 27 199 286 283 247 245 231 223 217 209 200 198 200 200 203 195 168 145 57 2 22 71 99 105 134 212 0 33 24 17 10 16 25 37 47 45 31 358 355 87 134 149 167
118 68 60 55 69 10 261 192 278 241 231 244 234 227 216 202 196 198 195 178 187 173 150 131 126 50 27 65 75 90 128 128 90 37 8 4 0 6 14 18 13 3 12 318 284 186 173 172 170
81 83 39 5 4 261 274 209 256 256 234 219 224 219 203 188 182 181 170 166 173 172 170 148 151 242 344 79 94 131 161 146 148 207 269 346 1 352 354 17 10 5 354 337 79 122 179 184 177
150 133 153 198 230 276 312 248 260 269 244 205 195 185 171 174 176 179 177 169 170 171 170 156 179 227 226 176 197 169 142 138 144 174 46 333 306 303 339 15 15 13 22 25 50 65 20 51 203
130 134 148 131 133 304 289 288 301 323 40 103 129 132 163 172 173 176 172 168 173 171 175 163 146 116 149 181 158 111 97 102 93 54 48 8 330 335 18 26 20 18 28 32 52 51 7 11 262
117 137 101 117 147 256 295 285 256 256 238 207 168 167 171 163 169 169 170 174 177 175 173 135 136 142 100 86 113 99 80 78 77 73 44 26 13 19 24 24 21 19 26 32 44 31 1 9 322
98 88 101 112 148 160 250 273 229 213 210 201 199 182 173 175 178 173 170 168 165 154 148 144 136 118 91 79 82 73 62 64 62 54 30 26 27 37 37 33 35 26 20 21 33 22 20 14 345
144 152 146 153 206 172 183 265 282 199 198 188 188 175 169 174 173 164 160 148 144 149 155 158 157 150 151 131 112 93 59 58 53 29 15 25 23 20 25 38 36 15 11 16 23 12 9 4 339
Height
1499 1498 1499 1501 1503 1511 1514 1507 1501 1500 1499 1499 1498 1498 1500 1503 1506 1511 1507 1505 1506 1506 1507 1507 1508 1509 1510 1511 1512 1513 1513 1514 1515 1516 1517 1518 1519 1521 1523 1525 1527 1529 1531 1532 1534 1535 1537 1538 1540
1499 1499 1501 1502 1510 1523 1518 1506 1503 1501 1501 1500 1500 1501 1502 1504 1505 1506 1506 1507 1507 1508 1508 1509 1510 1511 1512 1513 1514 1514 1515 1516 1517 1518 1519 1520 1521 1522 1524 1526 1528 1529 1531 1533 1534 1536 1537 1539 1540
1499 1500 1502 1504 1514 1522 1516 1506 1504 1502 1502 1501 1502 1503 1504 1506 1507 1507 1508 1508 1509 1509 1510 1511 1512 1513 1514 1515 1515 1516 1517 1518 1518 1519 1520 1521 1522 1524 1525 1527 1529 1530 1532 1533 1535 1536 1538 1539 1540
1500 1502 1504 1510 1516 1512 1509 1505 1504 1503 1503 1503 1504 1506 1507 1509 1509 1509 1509 1510 1510 1511 1512 1513 1513 1514 1515 1516 1517 1518 1519 1519 1520 1521 1522 1523 1524 1525 1526 1528 1529 1531 1532 1533 1535 1537 1538 1539 1540
1501 1502 1509 1517 1514 1509 1506 1506 1505 1505 1505 1506 1506 1509 1510 1511 1511 1511 1511 1511 1512 1513 1513 1514 1515 1516 1517 1518 1518 1519 1520 1520 1521 1522 1523 1524 1525 1526 1527 1528 1530 1531 1533 1534 1535 1537 1538 1539 1540
1503 1504 1519 1524 1516 1509 1507 1506 1506 1507 1508 1508 1509 1510 1512 1513 1513 1513 1512 1513 1514 1514 1515 1516 1517 1517 1518 1519 1520 1520 1521 1521 1522 1522 1523 1524 1526 1527 1528 1529 1530 1531 1533 1534 1535 1537 1538 1539 1540
1505 1510 1519 1519 1517 1512 1509 1508 1508 1509 1509 1510 1511 1512 1514 1514 1514 1515 1515 1515 1516 1517 1517 1518 1518 1519 1520 1521 1521 1522 1522 1522 1523 1523 1524 1525 1526 1527 1528 1530 1531 1532 1533 1534 1536 1537 1537 1538 1540
1505 1511 1518 1519 1518 1515 1510 1509 1510 1510 1511 1512 1512 1513 1514 1515 1515 1516 1516 1517 1518 1518 1519 1520 1520 1521 1522 1522 1523 1523 1523 1523 1523 1524 1525 1526 1527 1528 1529 1530 1531 1532 1533 1534 1535 1536 1537 1538 1539
1506 1515 1522 1518 1516 1513 1509 1510 1511 1512 1512 1513 1513 1514 1515 1516 1516 1517 1518 1519 1519 1520 1521 1521 1521 1522 1523 1523 1524 1524 1524 1524 1524 1524 1525 1526 1527 1528 1529 1530 1531 1532 1533 1533 1534 1535 1536 1537 1538
1507 1518 1515 1510 1509 1509 1509 1510 1511 1512 1513 1514 1514 1515 1516 1517 1517 1518 1519 1520 1521 1521 1522 1523 1523 1523 1524 1524 1524 1525 1525 1525 1525 1525 1525 1526 1527 1528 1529 1530 1530 1531 1532 1533 1533 1534 1535 1536 1537
1507 1512 1508 1507 1507 1509 1510 1511 1512 1513 1515 1514 1514 1516 1517 1518 1519 1520 1521 1521 1522 1523 1524 1524 1525 1525 1525 1525 1525 1525 1526 1526 1525 1526 1526 1527 1527 1528 1529 1530 1530 1530 1531 1532 1532 1533 1534 1534 1535
1508 1508 1507 1508 1508 1509 1510 1512 1513 1513 1515 1515 1515 1516 1517 1519 1520 1521 1521 1523 1524 1525 1525 1526 1526 1526 1526 1527 1526 1526 1526 1526 1526 1526 1527 1527 1528 1528 1528 1529 1529 1529 1530 1531 1531 1532 1532 1533 1533
1508 1508 1508 1508 1509 1510 1511 1513 1514 1515 1515 1516 1517 1518 1519 1520 1522 1523 1524 1525 1525 1526 1526 1527 1527 1527 1527 1527 1527 1527 1527 1526 1526 1526 1527 1527 1527 1528 1528 1529 1529 1529 1530 1530 1530 1530 1531 1531 1531
1508 1508 1509 1509 1510 1512 1513 1514 1515 1517 1517 1518 1519 1520 1522 1522 1523 1524 1525 1525 1526 1527 1527 1527 1527 1527 1527 1527 1527 1527 1526 1526 1527 1527 1527 1527 1527 1528 1528 1529 1529 1529 1529 1529 1529 1529 1529 1529 1529
1508 1510 1511 1510 1511 1512 1514 1518 1517 1517 1518 1519 1520 1522 1523 1524 1524 1525 1525 1526 1527 1527 1527 1527 1527 1527 1527 1527 1527 1527 1527 1527 1527 1527 1527 1527 1527 1528 1528 1528 1528 1528 1528 1528 1527 1527 1527 1527 1527
1510 1517 1522 1514 1512 1514 1518 1526 1519 1519 1519 1520 1521 1522 1523 1524 1525 1525 1526 1527 1527 1527 1527 1527 1527 1527 1527 1527 1527 1527 1527 1526 1526 1526 1526 1527 1527 1527 1527 1527 1527 1527 1527 1526 1526 1525 1525 1525 1525
1520 1527 1525 1519 1514 1514 1519 1524 1519 1519 1520 1521 1522 1523 1524 1525 1525 1526 1526 1527 1527 1527 1527 1527 1527 1527 1527 1527 1527 1526 1526 1526 1526 1526 1526 1526 1526 1527 1527 1527 1526 1526 1525 1525 1524 1523 1523 1523 1523
1526 1526 1524 1522 1515 1516 1520 1522 1519 1519 1520 1521 1522 1523 1523 1524 1525 1526 1527 1527 1527 1526 1526 1527 1527 1527 1527 1526 1526 1526 1526 1526 1526 1526 1526 1526 1526 1526 1526 1526 1525 1525 1524 1524 1523 1522 1522 1521 1521
1516 1520 1523 1519 1513 1517 1521 1521 1518 1518 1519 1520 1521 1522 1522 1523 1526 1527 1527 1526 1526 1525 1525 1526 1526 1526 1526 1526 1526 1525 1525 1525 1525 1526 1526 1526 1526 1526 1525 1525 1524 1524 1523 1523 1522 1522 1521 1520 1520
1514 1520 1521 1517 1514 1518 1523 1522 1518 1518 1518 1519 1520 1521 1521 1523 1524 1525 1525 1525 1525 1525 1525 1526 1526 1526 1526 1526 1525 1525 1525 1525 1525 1525 1525 1525 1525 1525 1525 1524 1523 1523 1523 1522 1522 1521 1520 1520 1520
1514 1518 1518 1519 1517 1519 1523 1527 1522 1518 1518 1519 1520 1520 1521 1522 1522 1523 1524 1524 1525 1525 1525 1526 1526 1526 1526 1525 1525 1525 1524 1524 1524 1524 1524 1524 1524 1524 1524 1523 1523 1523 1522 1522 1521 1521 1520 1520 1520
1517 1507 1510 1515 1525 1533 1528 1541 1525 1520 1518 1517 1517 1517 1518 1520 1521 1521 1522 1523 1524 1525 1525 1526 1526 1526 1525 1525 1524 1523 1523 1523 1523 1523 1523 1524 1524 1523 1523 1523 1522 1522 1522 1521 1521 1520 1520 1520 1519
1509 1505 1510 1517 1526 1535 1533 1539 1531 1521 1520 1516 1514 1515 1516 1517 1519 1520 1521 1522 1523 1524 1525 1525 1526 1526 1525 1524 1523 1522 1522 1522 1522 1522 1522 1523 1523 1522 1522 1522 1522 1521 1521 1521 1520 1519 1519 1519 1519
1504 1511 1518 1525 1534 1545 1536 1540 1535 1524 1517 1513 1511 1512 1513 1515 1517 1518 1520 1521 1522 1523 1524 1524 1524 1524 1524 1523 1522 1522 1521 1521 1521 1521 1521 1521 1521 1521 1521 1521 1520 1520 1520 1520 1519 1519 1518 1518 1518
1507 1524 1543 1545 1553 1550 1536 1538 1532 1513 1509 1509 1509 1509 1511 1513 1515 1516 1518 1519 1521 1522 1523 1523 1524 1523 1523 1522 1521 1520 1520 1520 1520 1520 1520 1520 1520 1520 1520 1519 1519 1519 1519 1519 1518 1518 1518 1517 1517
1511 1520 1543 1553 1556 1549 1538 1539 1522 1508 1506 1506 1507 1508 1510 1511 1513 1514 1516 1518 1520 1521 1522 1522 1522 1522 1522 1521 1520 1520 1519 1519 1519 1519 1519 1519 1519 1519 1519 1519 1519 1518 1518 1517 1517 1517 1516 1516 1516
1512 1520 1522 1540 1546 1550 1543 1531 1516 1506 1506 1506 1507 1508 1509 1510 1512 1514 1516 1517 1519 1520 1521 1521 1521 1521 1520 1520 1519 1519 1518 1518 1518 1518 1518 1519 1518 1519 1518 1518 1518 1518 1517 1517 1516 1515 1515 1515 1514
1505 1515 1529 1540 1552 1554 1543 1535 1527 1512 1509 1507 1508 1508 1509 1510 1512 1513 1515 1517 1518 1519 1520 1521 1520 1520 1520 1519 1519 1518 1518 1517 1517 1517 1517 1518 1518 1517 1517 1517 1517 1517 1517 1516 1515 1514 1513 1513 1512
1512 1518 1528 1540 1541 1551 1551 1537 1508 1507 1505 1506 1506 1507 1508 1510 1511 1513 1515 1516 1518 1519 1519 1520 1520 1519 1519 1519 1518 1517 1517 1517 1517 1517 1516 1517 1517 1516 1516 1516 1516 1516 1515 1515 1514 1513 1512 1511 1511
1504 1512 1523 1533 1539 1543 1546 1534 1500 1501 1501 1503 1504 1506 1508 1510 1512 1513 1515 1516 1517 1518 1518 1519 1519 1519 1519 1518 1518 1517 1517 1516 1516 1516 1516 1516 1516 1515 1515 1515 1515 1514 1514 1513 1512 1511 1511 1510 1509